[[{"header":{"parameterUnit":"m.s-1","parameterCategory":2,"la1":30.2992,"la2":30.254,"lo1":-89.0895,"lo2":-89.0443,"dy":0.0025,"dx":0.0025,"nx":19,"ny":19,"refTime":"2026-03-14T09:00:00:Z","depth":"0","parameterNumber":2,"parameterNumberName":"U-component_of_CURRENTS"},"data":[0,0,0,-0.1102,-0.1103,-0.1148,-0.1148,-0.1156,-0.1156,0,0,0,0,0,0,0,0,0,0,0,-0.1083,-0.1083,-0.1102,-0.1103,-0.1148,-0.1148,-0.1156,-0.1156,0,0,0,0,0,0,0,0,0,0,0,-0.1083,-0.1083,-0.1083,-0.1103,-0.1148,-0.1148,-0.1156,-0.1133,0,0,0,0,0,0,0,0,0,0,-0.1096,-0.1078,-0.1083,-0.1083,-0.1104,-0.1148,-0.1148,-0.1133,-0.1135,-0.1124,0,-0.1134,0,-0.1148,-0.1156,-0.1156,0,0,0,-0.1098,-0.1076,-0.1099,-0.1084,-0.1104,-0.1148,-0.1126,-0.1134,-0.1137,-0.1126,-0.1134,-0.1135,-0.1149,-0.1156,-0.1156,-0.1176,-0.1176,0,0,-0.1096,-0.1079,-0.1098,-0.11,-0.1119,-0.1125,-0.1128,-0.1136,-0.1132,-0.1134,-0.1136,-0.1149,-0.1156,-0.1156,-0.1176,-0.1176,0,0,0,-0.1092,-0.1077,-0.11,-0.11,-0.1113,-0.1126,-0.1129,-0.1132,-0.1143,-0.1136,-0.1149,-0.1156,-0.1156,-0.1175,-0.1176,-0.1209,0,0,0,-0.109,-0.1076,-0.1099,-0.1088,-0.1114,-0.1128,-0.1124,-0.1142,-0.1144,-0.1149,-0.1156,-0.1156,-0.1175,-0.1176,-0.1208,-0.1217,0,0,0,-0.108,-0.1074,-0.1083,-0.1087,-0.1111,-0.1128,-0.1139,-0.1143,-0.1151,-0.1156,-0.1156,-0.1175,-0.1175,-0.1206,-0.1215,-0.1197,0,0,0,-0.1056,-0.1083,-0.1083,-0.1123,-0.111,-0.1167,-0.114,-0.1169,-0.1177,-0.1156,-0.1175,-0.1176,-0.1206,-0.1214,-0.1196,-0.1013,-0.1001,0,0,-0.1083,-0.1086,-0.1115,-0.1117,-0.1179,-0.116,-0.1202,-0.1195,-0.1178,-0.1167,-0.1168,-0.1208,-0.1215,-0.1197,-0.1044,-0.1031,0,0,0,-0.112,-0.1136,-0.1158,-0.1191,-0.1225,-0.1236,-0.1233,-0.122,-0.1212,-0.1187,-0.121,-0.1213,-0.12,-0.1088,-0.1079,-0.1002,-0.1178,-0.1178,-0.1178,-0.1105,-0.1149,-0.1195,-0.1243,-0.1273,-0.1285,-0.1283,-0.126,-0.1247,-0.1244,-0.1241,-0.1253,-0.1135,-0.1125,-0.105,-0.1245,-0.1245,-0.1246,-0.1246,-0.1136,-0.1155,-0.121,-0.1268,-0.1291,-0.1314,-0.1318,-0.1302,-0.128,-0.1272,-0.1257,-0.1131,-0.1116,-0.104,-0.1248,-0.1247,-0.1247,-0.1247,-0.1247,-0.1104,-0.1119,-0.1166,-0.1234,-0.128,-0.1315,-0.1311,-0.1328,-0.1303,-0.13,-0.1146,-0.1143,-0.1071,-0.1286,-0.1286,-0.1286,-0.1286,-0.1286,-0.1286,-0.1032,-0.1087,-0.111,-0.1197,-0.1228,-0.1277,-0.1306,-0.1283,-0.1211,-0.1159,-0.1157,-0.105,-0.1264,-0.1257,-0.1286,-0.1286,-0.1286,-0.1286,-0.1286,-0.097,-0.099,-0.102,-0.1054,-0.1134,-0.1083,-0.1177,-0.1046,-0.1045,-0.0956,-0.0869,-0.1065,-0.1028,-0.1033,-0.1019,-0.0985,-0.0985,-0.0985,-0.0985,-0.0893,-0.092,-0.0911,-0.0933,-0.0965,-0.0982,-0.0772,-0.0687,-0.0633,-0.0585,-0.0708,-0.0655,-0.067,-0.0612,-0.0626,-0.0605,-0.0466,-0.0465,-0.0465,-0.0827,-0.0842,-0.0791,-0.0831,-0.0862,-0.0794,-0.0502,-0.0282,-0.0284,-0.0446,-0.0645,-0.0667,-0.0598,-0.0628,-0.0544,-0.057,-0.0538,0,0]},{"header":{"parameterUnit":"m.s-1","parameterCategory":2,"la1":30.2992,"la2":30.254,"lo1":-89.0895,"lo2":-89.0443,"dy":0.0025,"dx":0.0025,"nx":19,"ny":19,"refTime":"2026-03-14T09:00:00:Z","depth":"0","parameterNumber":3,"parameterNumberName":"V-component_of_CURRENTS"},"data":[0,0,0,0.0074,0.0074,0.0103,0.0103,0.0162,0.0163,0,0,0,0,0,0,0,0,0,0,0,0.0064,0.0064,0.0074,0.0074,0.0103,0.0103,0.0162,0.0163,0,0,0,0,0,0,0,0,0,0,0,0.0064,0.0064,0.0064,0.0074,0.0103,0.0103,0.0162,0.0136,0,0,0,0,0,0,0,0,0,0,0.0106,0.0087,0.0064,0.0064,0.0075,0.0103,0.0103,0.0135,0.0138,0.0154,0,0.0153,0,0.0157,0.0166,0.0167,0,0,0,0.0081,0.0085,0.0095,0.0064,0.0075,0.0103,0.0092,0.0136,0.014,0.0158,0.0154,0.0156,0.0158,0.0167,0.0167,0.0205,0.0205,0,0,0.0079,0.0068,0.0093,0.0097,0.0076,0.0091,0.0093,0.0138,0.0138,0.0154,0.0157,0.0159,0.0167,0.0168,0.0205,0.0205,0,0,0,0.007,0.0067,0.0077,0.0095,0.0097,0.0091,0.0094,0.0136,0.014,0.0158,0.016,0.0168,0.0168,0.0205,0.0205,0.0164,0,0,0,0.007,0.0062,0.0076,0.007,0.0096,0.0113,0.009,0.0137,0.0142,0.016,0.0168,0.0169,0.0205,0.0205,0.0165,0.015,0,0,0,0.0063,0.0061,0.0063,0.0069,0.0079,0.0112,0.0119,0.0138,0.0143,0.0167,0.0169,0.0205,0.0205,0.0166,0.0152,0.0204,0,0,0,0.0054,0.0032,0.0063,0.0043,0.0079,0.0084,0.0118,0.0128,0.0143,0.0168,0.0205,0.0205,0.0167,0.0153,0.0204,0.036,0.0373,0,0,0.0016,0.0027,0.0016,0.0044,0.0027,0.0081,0.0083,0.0119,0.0151,0.0193,0.0194,0.0165,0.0152,0.0204,0.0357,0.037,0,0,0,-0.0002,-0.0015,-0.0014,-0.0012,0.0013,0.004,0.0083,0.0112,0.0149,0.016,0.0176,0.0169,0.0204,0.0298,0.0308,0.0457,0.0205,0.0205,0.0205,-0.007,-0.0055,-0.0081,-0.0061,-0.0043,0.0015,0.0045,0.0096,0.0128,0.014,0.0143,0.0164,0.0262,0.0272,0.0422,0.0151,0.0151,0.0151,0.0151,-0.0142,-0.0159,-0.013,-0.0151,-0.0098,-0.0078,0.0011,0.0047,0.0119,0.0124,0.016,0.0258,0.0281,0.0438,0.0148,0.0149,0.0149,0.0149,0.015,-0.0192,-0.0201,-0.0205,-0.0218,-0.0198,-0.0132,-0.0051,0.0002,0.0082,0.0107,0.0273,0.0276,0.0413,0.0147,0.0147,0.0147,0.0147,0.0147,0.0147,-0.024,-0.0247,-0.0283,-0.0288,-0.0281,-0.022,-0.0089,0.0009,0.0174,0.0254,0.0257,0.0454,0.0164,0.0162,0.015,0.0149,0.0149,0.0149,0.0149,-0.0299,-0.0301,-0.0355,-0.0364,-0.0325,-0.0193,-0.0078,0.0215,0.0308,0.0426,0.064,0.036,0.0403,0.0398,0.0403,0.0454,0.0454,0.0454,0.0454,-0.0331,-0.0341,-0.0393,-0.0396,-0.0327,-0.0173,0.0157,0.0413,0.0697,0.0857,0.0846,0.0888,0.0869,0.094,0.0922,0.0939,0.1124,0.1124,0.1125,-0.0361,-0.0377,-0.04,-0.04,-0.0315,-0.0076,0.0287,0.0662,0.1052,0.116,0.1022,0.0993,0.1055,0.1013,0.1121,0.1085,0.111,0,0]}],[{"header":{"parameterUnit":"m.s-1","parameterCategory":2,"la1":30.2992,"la2":30.254,"lo1":-89.0895,"lo2":-89.0443,"dy":0.0025,"dx":0.0025,"nx":19,"ny":19,"refTime":"2026-03-14T09:00:00:Z","depth":"2","parameterNumber":2,"parameterNumberName":"U-component_of_CURRENTS"},"data":[0,0,0,-0.1075,-0.1077,-0.1119,-0.1119,-0.1127,-0.1127,0,0,0,0,0,0,0,0,0,0,0,-0.1057,-0.1058,-0.1075,-0.1077,-0.1119,-0.1119,-0.1127,-0.1127,0,0,0,0,0,0,0,0,0,0,0,-0.1057,-0.1058,-0.1058,-0.1077,-0.1119,-0.1119,-0.1127,-0.1106,0,0,0,0,0,0,0,0,0,0,-0.107,-0.1054,-0.1058,-0.1058,-0.1077,-0.1119,-0.1119,-0.1105,-0.1107,-0.1097,0,-0.1106,0,-0.112,-0.1127,-0.1127,0,0,0,-0.1072,-0.1052,-0.1073,-0.1058,-0.1078,-0.1119,-0.1098,-0.1106,-0.1108,-0.1099,-0.1106,-0.1107,-0.112,-0.1127,-0.1127,-0.1147,-0.1147,0,0,-0.107,-0.1054,-0.1071,-0.1074,-0.1092,-0.1097,-0.11,-0.1108,-0.1105,-0.1107,-0.1108,-0.112,-0.1127,-0.1127,-0.1147,-0.1147,0,0,0,-0.1066,-0.1053,-0.1074,-0.1073,-0.1086,-0.1098,-0.1101,-0.1104,-0.1114,-0.1108,-0.112,-0.1127,-0.1127,-0.1147,-0.1147,-0.1181,0,0,0,-0.1064,-0.1051,-0.1073,-0.1063,-0.1087,-0.11,-0.1097,-0.1114,-0.1115,-0.112,-0.1127,-0.1127,-0.1146,-0.1147,-0.118,-0.1189,0,0,0,-0.1055,-0.105,-0.1058,-0.1062,-0.1084,-0.1101,-0.1111,-0.1114,-0.1123,-0.1127,-0.1127,-0.1146,-0.1147,-0.1179,-0.1187,-0.1171,0,0,0,-0.1033,-0.1059,-0.1058,-0.1096,-0.1084,-0.1138,-0.1111,-0.1139,-0.1148,-0.1127,-0.1146,-0.1147,-0.1178,-0.1186,-0.117,-0.1007,-0.0997,0,0,-0.1059,-0.1061,-0.1089,-0.109,-0.1149,-0.1131,-0.1172,-0.1165,-0.1149,-0.1139,-0.114,-0.118,-0.1187,-0.1171,-0.1038,-0.1027,0,0,0,-0.1094,-0.1109,-0.1129,-0.1161,-0.1193,-0.1204,-0.1202,-0.119,-0.1183,-0.1157,-0.1182,-0.1185,-0.1173,-0.1073,-0.1065,-0.115,-0.1149,-0.1149,-0.1149,-0.1082,-0.1123,-0.1166,-0.1211,-0.124,-0.1252,-0.1252,-0.123,-0.1217,-0.1215,-0.1214,-0.1227,-0.1122,-0.1114,-0.1218,-0.1218,-0.1218,-0.1218,-0.1218,-0.1111,-0.113,-0.1182,-0.1236,-0.126,-0.1283,-0.1288,-0.1273,-0.1253,-0.1244,-0.1231,-0.1116,-0.1106,-0.1221,-0.1221,-0.122,-0.122,-0.122,-0.1219,-0.1083,-0.1096,-0.1142,-0.1207,-0.1252,-0.1286,-0.1286,-0.1301,-0.1277,-0.1275,-0.1136,-0.1133,-0.1231,-0.1262,-0.1262,-0.1262,-0.1262,-0.1262,-0.1262,-0.1015,-0.1067,-0.1089,-0.1173,-0.1202,-0.1251,-0.1283,-0.1263,-0.12,-0.1152,-0.1149,-0.1241,-0.124,-0.1233,-0.1262,-0.1262,-0.1262,-0.1262,-0.1262,-0.0956,-0.0975,-0.1003,-0.1035,-0.1111,-0.1062,-0.1158,-0.1047,-0.1051,-0.0971,-0.1063,-0.1068,-0.1032,-0.1036,-0.1024,-0.0997,-0.0997,-0.0997,-0.0997,-0.0883,-0.0908,-0.0898,-0.0916,-0.0945,-0.0963,-0.0773,-0.0732,-0.0765,-0.0791,-0.08,-0.0759,-0.0772,-0.0721,-0.0733,-0.0714,-0.0607,-0.0607,-0.0606,-0.0819,-0.0832,-0.0782,-0.0817,-0.0843,-0.0778,-0.0511,-0.0345,-0.0425,-0.0597,-0.0797,-0.0959,-0.0921,-0.0934,-0.0874,-0.0885,-0.0862,0,0]},{"header":{"parameterUnit":"m.s-1","parameterCategory":2,"la1":30.2992,"la2":30.254,"lo1":-89.0895,"lo2":-89.0443,"dy":0.0025,"dx":0.0025,"nx":19,"ny":19,"refTime":"2026-03-14T09:00:00:Z","depth":"2","parameterNumber":3,"parameterNumberName":"V-component_of_CURRENTS"},"data":[0,0,0,-0.0015,-0.0015,0.0013,0.0013,0.007,0.007,0,0,0,0,0,0,0,0,0,0,0,-0.0026,-0.0025,-0.0015,-0.0015,0.0013,0.0013,0.007,0.007,0,0,0,0,0,0,0,0,0,0,0,-0.0026,-0.0025,-0.0025,-0.0015,0.0013,0.0013,0.007,0.0045,0,0,0,0,0,0,0,0,0,0,0.0015,-0.0003,-0.0025,-0.0025,-0.0015,0.0013,0.0013,0.0043,0.0046,0.0061,0,0.0061,0,0.0065,0.0074,0.0074,0,0,0,-0.0009,-0.0005,0.0005,-0.0025,-0.0015,0.0013,0.0002,0.0045,0.0048,0.0065,0.0062,0.0064,0.0066,0.0074,0.0075,0.0113,0.0113,0,0,-0.0011,-0.0021,0.0003,0.0007,-0.0012,0.0001,0.0003,0.0047,0.0047,0.0062,0.0065,0.0067,0.0075,0.0075,0.0113,0.0113,0,0,0,-0.0019,-0.0022,-0.0013,0.0005,0.0007,0.0002,0.0004,0.0045,0.0048,0.0065,0.0068,0.0075,0.0076,0.0113,0.0113,0.0076,0,0,0,-0.002,-0.0027,-0.0014,-0.0019,0.0006,0.0022,0.0001,0.0045,0.005,0.0067,0.0075,0.0076,0.0113,0.0113,0.0077,0.0063,0,0,0,-0.0026,-0.0028,-0.0026,-0.002,-0.001,0.0022,0.0028,0.0047,0.0052,0.0074,0.0076,0.0113,0.0113,0.0078,0.0064,0.0114,0,0,0,-0.0035,-0.0056,-0.0026,-0.0045,-0.001,-0.0005,0.0028,0.0037,0.0052,0.0075,0.0113,0.0113,0.0078,0.0065,0.0114,0.0237,0.0247,0,0,-0.0072,-0.0061,-0.0072,-0.0045,-0.0062,-0.0008,-0.0006,0.0029,0.006,0.0101,0.0102,0.0077,0.0065,0.0114,0.0238,0.0248,0,0,0,-0.009,-0.0103,-0.0102,-0.01,-0.0076,-0.0048,-0.0006,0.0023,0.0061,0.0069,0.0088,0.0081,0.0114,0.0188,0.0196,0.0113,0.0113,0.0113,0.0113,-0.0156,-0.0142,-0.0168,-0.0148,-0.013,-0.0072,-0.0041,0.0011,0.0041,0.0056,0.0059,0.008,0.0158,0.0166,0.0068,0.0068,0.0068,0.0067,0.0067,-0.0227,-0.0244,-0.0215,-0.0235,-0.0182,-0.016,-0.007,-0.0033,0.0039,0.0043,0.0078,0.0154,0.0173,0.0065,0.0065,0.0066,0.0066,0.0066,0.0066,-0.0276,-0.0285,-0.0288,-0.03,-0.0278,-0.0212,-0.0135,-0.0077,0.0005,0.003,0.0169,0.0172,0.0077,0.0067,0.0067,0.0067,0.0067,0.0067,0.0067,-0.0325,-0.033,-0.0366,-0.0369,-0.0364,-0.0305,-0.0174,-0.008,0.0077,0.0151,0.0153,0.0081,0.0081,0.0079,0.007,0.0069,0.0069,0.0069,0.0069,-0.0385,-0.0385,-0.044,-0.0451,-0.0419,-0.0305,-0.0187,0.0081,0.0173,0.0279,0.0245,0.024,0.0277,0.0273,0.0276,0.0319,0.0319,0.0319,0.0319,-0.042,-0.0428,-0.0483,-0.0492,-0.0436,-0.0298,-0.0042,0.0117,0.026,0.0303,0.0302,0.03,0.0293,0.0329,0.0323,0.0327,0.0381,0.0381,0.038,-0.0452,-0.0468,-0.0496,-0.0501,-0.0432,-0.0226,0.003,0.0165,0.03,0.037,0.018,0.0349,0.0346,0.0334,0.0391,0.0381,0.0388,0,0]}],[{"header":{"parameterUnit":"m.s-1","parameterCategory":2,"la1":30.2992,"la2":30.254,"lo1":-89.0895,"lo2":-89.0443,"dy":0.0025,"dx":0.0025,"nx":19,"ny":19,"refTime":"2026-03-14T09:00:00:Z","depth":"4","parameterNumber":2,"parameterNumberName":"U-component_of_CURRENTS"},"data":[0,0,0,-0.0821,-0.0822,-0.0885,-0.0885,-0.0928,-0.0928,0,0,0,0,0,0,0,0,0,0,0,-0.0802,-0.0803,-0.0821,-0.0823,-0.0885,-0.0886,-0.0928,-0.0928,0,0,0,0,0,0,0,0,0,0,0,-0.0802,-0.0802,-0.0803,-0.0823,-0.0885,-0.0886,-0.0928,-0.0891,0,0,0,0,0,0,0,0,0,0,-0.0835,-0.0823,-0.0802,-0.0803,-0.0823,-0.0885,-0.0886,-0.0889,-0.0893,-0.0888,0,-0.0902,0,-0.0913,-0.093,-0.093,0,0,0,-0.0825,-0.082,-0.0835,-0.0803,-0.0824,-0.0885,-0.0858,-0.0892,-0.0896,-0.0893,-0.0902,-0.0904,-0.0914,-0.093,-0.093,-0.0977,-0.0978,0,0,-0.0821,-0.0815,-0.0832,-0.0837,-0.0844,-0.0856,-0.0859,-0.0894,-0.0901,-0.0902,-0.0905,-0.0915,-0.093,-0.0931,-0.0977,-0.0977,0,0,0,-0.081,-0.0812,-0.0827,-0.0835,-0.0849,-0.0857,-0.0862,-0.0899,-0.0904,-0.0906,-0.0915,-0.0931,-0.0931,-0.0977,-0.0977,-0.1012,0,0,0,-0.0808,-0.0806,-0.0825,-0.0822,-0.0848,-0.088,-0.0866,-0.0902,-0.0906,-0.0915,-0.0931,-0.0931,-0.0976,-0.0977,-0.101,-0.1021,0,0,0,-0.0799,-0.0805,-0.0813,-0.0822,-0.0848,-0.088,-0.0887,-0.0903,-0.0911,-0.093,-0.0931,-0.0976,-0.0977,-0.1009,-0.1019,-0.1013,0,0,0,-0.0788,-0.0808,-0.0813,-0.0842,-0.0847,-0.0897,-0.0887,-0.0927,-0.0947,-0.0931,-0.0976,-0.0977,-0.1008,-0.1017,-0.1012,-0.0859,0,0,0,-0.0806,-0.081,-0.0828,-0.0834,-0.0882,-0.0888,-0.0938,-0.0958,-0.0954,-0.0962,-0.0963,-0.1011,-0.1019,-0.1013,-0.0905,0,0,0,0,-0.0829,-0.0841,-0.0858,-0.0887,-0.092,-0.0956,-0.0976,-0.098,-0.1002,-0.0969,-0.1016,-0.102,-0.1015,-0.0923,-0.0981,-0.0981,-0.0981,-0.098,-0.098,-0.0831,-0.0856,-0.0891,-0.0928,-0.0964,-0.1005,-0.1028,-0.1036,-0.1031,-0.1045,-0.1053,-0.1078,-0.0984,-0.1059,-0.1059,-0.1059,-0.106,-0.106,-0.106,-0.0845,-0.0858,-0.091,-0.0954,-0.1,-0.1044,-0.108,-0.1083,-0.1094,-0.1087,-0.108,-0.0972,-0.1063,-0.1063,-0.1062,-0.1062,-0.1061,-0.1061,-0.1061,-0.0826,-0.0836,-0.0878,-0.0941,-0.1008,-0.1064,-0.1087,-0.1125,-0.1123,-0.1129,-0.1011,-0.1093,-0.1083,-0.1124,-0.1124,-0.1124,-0.1124,-0.1124,-0.1124,-0.0775,-0.0819,-0.0844,-0.0926,-0.0959,-0.1019,-0.1092,-0.1094,-0.1124,-0.103,-0.1136,-0.1099,-0.1097,-0.1087,-0.1124,-0.1124,-0.1124,-0.1124,-0.1124,-0.0725,-0.0751,-0.0769,-0.08,-0.0855,-0.0887,-0.1003,-0.1,-0.0978,-0.094,-0.0964,-0.0971,-0.0938,-0.0939,-0.0922,-0.0913,-0.0911,-0.0909,0,-0.0673,-0.0694,-0.0678,-0.0672,-0.0672,-0.0776,-0.0734,-0.0782,-0.0825,-0.0774,-0.0948,-0.0971,-0.0977,-0.0937,-0.0936,-0.0913,0,0,0,-0.0627,-0.0628,-0.0579,-0.0577,-0.056,-0.0597,-0.0705,-0.0675,-0.0834,-0.0816,-0.0863,-0.0875,-0.1057,-0.1126,-0.1093,-0.109,-0.1072,0,0]},{"header":{"parameterUnit":"m.s-1","parameterCategory":2,"la1":30.2992,"la2":30.254,"lo1":-89.0895,"lo2":-89.0443,"dy":0.0025,"dx":0.0025,"nx":19,"ny":19,"refTime":"2026-03-14T09:00:00:Z","depth":"4","parameterNumber":3,"parameterNumberName":"V-component_of_CURRENTS"},"data":[0,0,0,-0.0152,-0.0152,-0.0134,-0.0134,-0.008,-0.0079,0,0,0,0,0,0,0,0,0,0,0,-0.0158,-0.0158,-0.0152,-0.0152,-0.0134,-0.0134,-0.008,-0.0079,0,0,0,0,0,0,0,0,0,0,0,-0.0158,-0.0158,-0.0158,-0.0152,-0.0134,-0.0134,-0.008,-0.01,0,0,0,0,0,0,0,0,0,0,-0.012,-0.0136,-0.0158,-0.0158,-0.0152,-0.0134,-0.0134,-0.0101,-0.0098,-0.008,0,-0.0082,0,-0.0081,-0.0075,-0.0075,0,0,0,-0.0146,-0.0138,-0.0131,-0.0158,-0.0152,-0.0135,-0.014,-0.01,-0.0097,-0.0077,-0.0082,-0.008,-0.0081,-0.0075,-0.0075,-0.0019,-0.0019,0,0,-0.0146,-0.0155,-0.0133,-0.0129,-0.0153,-0.0141,-0.014,-0.0098,-0.0098,-0.0082,-0.0079,-0.008,-0.0075,-0.0074,-0.0019,-0.0019,0,0,0,-0.0153,-0.0156,-0.0149,-0.0131,-0.0132,-0.0141,-0.0139,-0.01,-0.0098,-0.0078,-0.0079,-0.0074,-0.0074,-0.0019,-0.0019,-0.004,0,0,0,-0.0154,-0.016,-0.015,-0.0155,-0.0133,-0.0121,-0.0143,-0.0101,-0.0096,-0.0079,-0.0074,-0.0073,-0.0019,-0.0019,-0.004,-0.0052,0,0,0,-0.0158,-0.016,-0.016,-0.0155,-0.015,-0.0122,-0.0117,-0.01,-0.0096,-0.0075,-0.0073,-0.0019,-0.0019,-0.004,-0.0051,-0.0017,0,0,0,-0.0164,-0.018,-0.016,-0.0174,-0.0151,-0.0143,-0.0118,-0.0108,-0.0093,-0.0074,-0.0019,-0.0019,-0.004,-0.0051,-0.0017,-0.0152,0,0,0,-0.019,-0.0183,-0.0191,-0.0173,-0.0183,-0.0145,-0.0133,-0.0103,-0.0077,-0.003,-0.0029,-0.004,-0.0051,-0.0017,-0.0124,0,0,0,0,-0.0203,-0.0212,-0.0211,-0.021,-0.0191,-0.0162,-0.0128,-0.0099,-0.0056,-0.0067,-0.0025,-0.0031,-0.0009,-0.0088,-0.0017,-0.0017,-0.0017,-0.0017,-0.0017,-0.0255,-0.0241,-0.0258,-0.0239,-0.0221,-0.0169,-0.0135,-0.0082,-0.0063,-0.0041,-0.0037,-0.0012,-0.0097,-0.0023,-0.0023,-0.0023,-0.0023,-0.0023,-0.0023,-0.0305,-0.0318,-0.0289,-0.0302,-0.0253,-0.0229,-0.0136,-0.0103,-0.0034,-0.0033,-0.0009,-0.0093,-0.0025,-0.0024,-0.0024,-0.0024,-0.0024,-0.0024,-0.0024,-0.0348,-0.0352,-0.0355,-0.036,-0.0333,-0.0269,-0.0229,-0.014,-0.0058,-0.0034,-0.0089,-0.0011,-0.002,-0.0015,-0.0015,-0.0015,-0.0014,-0.0014,-0.0014,-0.0393,-0.0394,-0.043,-0.0422,-0.043,-0.0395,-0.0282,-0.0225,-0.011,-0.0122,-0.0034,-0.0009,-0.0009,-0.0017,-0.0013,-0.0013,-0.0013,-0.0013,-0.0014,-0.0452,-0.0454,-0.0509,-0.0534,-0.055,-0.0524,-0.0419,-0.0304,-0.0244,-0.019,-0.0153,-0.0146,-0.0143,-0.0139,-0.0153,-0.0188,-0.019,-0.0191,0,-0.0492,-0.0497,-0.0579,-0.0634,-0.0665,-0.06,-0.0575,-0.0472,-0.0314,-0.0344,-0.0212,-0.0174,-0.0169,-0.017,-0.0169,-0.0188,0,0,0,-0.0533,-0.0553,-0.0621,-0.0673,-0.0716,-0.0646,-0.0565,-0.054,-0.0363,-0.0315,-0.0234,-0.0223,-0.0118,-0.0008,0.0013,0.0013,0.0,0,0]}]]